TimeEDT,TemperatureF,Dew PointF,Humidity,Sea Level PressureIn,VisibilityMPH,Wind Direction,Wind SpeedMPH,Gust SpeedMPH,PrecipitationIn,Events,Conditions,WindDirDegrees,DateUTC
12:07 AM,64.4,60.8,88,29.88,-9999.0,East,9.2,20.7,N/A,,Overcast,90,2013-05-05 04:07:00
12:56 AM,64.0,61.0,90,29.87,-9999.0,East,9.2,-,0.01,Rain,Light Rain,100,2013-05-05 04:56:00
1:56 AM,64.9,61.0,87,29.83,-9999.0,East,11.5,18.4,0.00,Rain,Light Rain,90,2013-05-05 05:56:00
2:56 AM,64.9,62.1,90,29.81,-9999.0,East,8.1,18.4,0.01,Rain,Light Rain,90,2013-05-05 06:56:00
3:56 AM,64.9,61.0,87,29.81,-9999.0,East,10.4,-,0.01,,Overcast,100,2013-05-05 07:56:00
4:13 AM,64.4,62.6,94,29.80,-9999.0,East,10.4,-,0.01,Rain,Light Rain,100,2013-05-05 08:13:00
4:56 AM,64.9,62.1,90,29.79,-9999.0,ESE,15.0,21.9,0.03,,Overcast,110,2013-05-05 08:56:00
5:56 AM,66.0,61.0,84,29.78,-9999.0,ESE,13.8,23.0,0.02,,Overcast,110,2013-05-05 09:56:00
6:56 AM,66.9,60.1,79,29.77,-9999.0,East,16.1,23.0,N/A,,Overcast,100,2013-05-05 10:56:00
7:11 AM,66.2,60.8,83,29.79,-9999.0,East,12.7,23.0,N/A,Thunderstorm,Thunderstorm,100,2013-05-05 11:11:00
7:40 AM,66.2,62.6,88,29.80,-9999.0,East,10.4,-,0.06,Rain,Heavy Rain,100,2013-05-05 11:40:00
7:47 AM,66.2,62.6,88,29.80,-9999.0,East,8.1,18.4,0.11,Rain,Heavy Rain,100,2013-05-05 11:47:00
7:56 AM,66.9,62.1,84,29.80,-9999.0,ESE,9.2,-,0.14,Rain,Rain,110,2013-05-05 11:56:00
8:32 AM,66.2,62.6,88,29.79,-9999.0,ESE,12.7,21.9,0.10,Rain,Light Rain,110,2013-05-05 12:32:00
8:56 AM,66.9,62.1,84,29.80,-9999.0,ESE,12.7,-,0.11,Rain,Light Rain,110,2013-05-05 12:56:00
9:38 AM,66.2,62.6,88,29.80,-9999.0,SE,21.9,28.8,0.12,Rain,Heavy Rain,130,2013-05-05 13:38:00
9:56 AM,66.0,63.0,90,29.81,-9999.0,SE,19.6,27.6,0.15,Rain,Rain,130,2013-05-05 13:56:00
10:27 AM,66.2,62.6,88,29.82,-9999.0,SE,15.0,23.0,0.03,Rain,Light Rain,140,2013-05-05 14:27:00
10:56 AM,66.9,64.0,90,29.83,-9999.0,SE,10.4,17.3,0.09,Rain,Rain,130,2013-05-05 14:56:00
11:23 AM,66.2,64.4,94,29.82,-9999.0,SE,17.3,25.3,0.01,,Overcast,140,2013-05-05 15:23:00
11:56 AM,68.0,64.0,87,29.83,-9999.0,SE,13.8,23.0,0.02,Rain,Light Rain,140,2013-05-05 15:56:00
12:02 PM,68.0,64.4,88,29.83,-9999.0,SE,10.4,23.0,0.00,Rain,Light Rain,140,2013-05-05 16:02:00
12:48 PM,66.2,64.4,94,29.81,-9999.0,South,5.8,20.7,0.33,Rain,Rain,170,2013-05-05 16:48:00
12:56 PM,66.9,64.9,93,29.81,-9999.0,SSE,9.2,-,0.41,Rain,Heavy Rain,160,2013-05-05 16:56:00
1:04 PM,66.2,66.2,100,29.81,-9999.0,South,11.5,17.3,0.06,Rain,Heavy Rain,180,2013-05-05 17:04:00
1:19 PM,66.2,64.4,94,29.81,-9999.0,South,8.1,23.0,0.10,Rain,Light Rain,170,2013-05-05 17:19:00
1:31 PM,68.0,66.2,94,29.81,-9999.0,SSE,12.7,23.0,0.10,,Overcast,160,2013-05-05 17:31:00
1:56 PM,71.1,68.0,90,29.81,-9999.0,SSE,10.4,18.4,0.10,Rain,Light Rain,150,2013-05-05 17:56:00
2:22 PM,68.0,66.2,94,29.81,-9999.0,South,6.9,-,0.08,Rain,Rain,170,2013-05-05 18:22:00
2:56 PM,68.0,64.9,90,29.81,-9999.0,West,6.9,-,0.11,Rain,Light Rain,260,2013-05-05 18:56:00
3:26 PM,66.2,62.6,88,29.80,-9999.0,West,8.1,-,0.00,,Overcast,260,2013-05-05 19:26:00
3:47 PM,68.0,64.4,88,29.80,-9999.0,WNW,5.8,-,0.00,,Overcast,300,2013-05-05 19:47:00
3:56 PM,68.0,63.0,84,29.80,10.0,WNW,6.9,-,0.00,,Overcast,300,2013-05-05 19:56:00
4:48 PM,69.8,62.6,78,29.79,10.0,WNW,4.6,-,N/A,,Overcast,290,2013-05-05 20:48:00
4:56 PM,69.1,63.0,81,29.80,10.0,WNW,5.8,-,N/A,,Overcast,300,2013-05-05 20:56:00
5:53 PM,71.6,62.6,73,29.79,10.0,NW,3.5,-,N/A,,Overcast,310,2013-05-05 21:53:00
5:56 PM,72.0,62.1,71,29.79,10.0,Variable,5.8,-,N/A,,Scattered Clouds,0,2013-05-05 21:56:00
6:56 PM,72.0,60.1,66,29.80,-9999.0,Calm,Calm,-,N/A,,Clear,0,2013-05-05 22:56:00
7:56 PM,69.1,62.1,78,29.81,-9999.0,Calm,Calm,-,N/A,,Clear,0,2013-05-05 23:56:00
8:56 PM,63.0,60.1,90,29.82,-9999.0,Calm,Calm,-,N/A,,Clear,0,2013-05-06 00:56:00
9:56 PM,62.1,59.0,90,29.84,-9999.0,Calm,Calm,-,N/A,,Clear,0,2013-05-06 01:56:00
10:56 PM,60.1,57.9,93,29.86,-9999.0,Calm,Calm,-,N/A,,Clear,0,2013-05-06 02:56:00
11:20 PM,59.0,57.2,94,29.85,-9999.0,Calm,Calm,-,N/A,,Partly Cloudy,0,2013-05-06 03:20:00
11:56 PM,60.1,57.9,93,29.86,-9999.0,Calm,Calm,-,N/A,,Clear,0,2013-05-06 03:56:00